Time,TemperatureF,DewpointF,PressureIn,WindDirection,WindDirectionDegrees,WindSpeedMPH,WindSpeedGustMPH,Humidity,HourlyPrecipIn,Conditions,Clouds,dailyrainin,SoftwareType,DateUTC
2013-05-18 00:01:00,65.1,63.6,30.12,ESE,119,0.0,0.0,95,0.22,,,0.11,HR-IXPWINDi_r2_v1.2.,2013-05-18 04:01:00,
2013-05-18 00:06:00,65.0,63.5,30.12,ESE,119,0.0,0.0,95,0.09,,,0.01,HR-IXPWINDi_r2_v1.2.,2013-05-18 04:06:00,
2013-05-18 00:11:00,65.0,63.5,30.11,ESE,119,0.0,0.0,95,0.09,,,0.01,HR-IXPWINDi_r2_v1.2.,2013-05-18 04:11:00,
2013-05-18 00:16:00,64.9,63.7,30.11,ESE,119,0.0,0.0,96,0.05,,,0.01,HR-IXPWINDi_r2_v1.2.,2013-05-18 04:16:00,
2013-05-18 00:21:00,64.8,63.6,30.11,ESE,119,0.0,0.0,96,0.04,,,0.01,HR-IXPWINDi_r2_v1.2.,2013-05-18 04:21:00,
2013-05-18 00:27:00,64.8,63.6,30.11,ESE,119,0.0,0.0,96,0.00,,,0.01,HR-IXPWINDi_r2_v1.2.,2013-05-18 04:27:00,
2013-05-18 00:32:00,64.7,63.5,30.11,ESE,119,0.0,0.0,96,0.00,,,0.01,HR-IXPWINDi_r2_v1.2.,2013-05-18 04:32:00,
2013-05-18 00:37:00,64.6,63.4,30.11,ESE,119,0.0,0.0,96,0.00,,,0.01,HR-IXPWINDi_r2_v1.2.,2013-05-18 04:37:00,
2013-05-18 00:42:00,64.6,63.4,30.11,ESE,119,0.0,0.0,96,0.00,,,0.01,HR-IXPWINDi_r2_v1.2.,2013-05-18 04:42:00,
2013-05-18 00:47:00,64.6,63.4,30.11,ESE,119,0.0,0.0,96,0.00,,,0.01,HR-IXPWINDi_r2_v1.2.,2013-05-18 04:47:00,
2013-05-18 00:53:00,64.5,63.3,30.11,ESE,119,0.0,0.0,96,0.00,,,0.01,HR-IXPWINDi_r2_v1.2.,2013-05-18 04:53:00,
2013-05-18 00:58:00,64.4,63.5,30.10,ESE,119,0.0,0.0,97,0.00,,,0.01,HR-IXPWINDi_r2_v1.2.,2013-05-18 04:58:00,
2013-05-18 01:03:00,64.4,63.2,30.10,ESE,119,0.0,0.0,96,0.00,,,0.02,HR-IXPWINDi_r2_v1.2.,2013-05-18 05:03:00,
2013-05-18 01:08:00,64.3,63.1,30.10,ESE,119,0.0,0.0,96,0.00,,,0.02,HR-IXPWINDi_r2_v1.2.,2013-05-18 05:08:00,
2013-05-18 01:13:00,64.2,63.3,30.10,ESE,119,0.0,0.0,97,0.00,,,0.02,HR-IXPWINDi_r2_v1.2.,2013-05-18 05:13:00,
2013-05-18 01:18:00,64.2,63.3,30.10,ESE,119,0.0,0.0,97,0.00,,,0.02,HR-IXPWINDi_r2_v1.2.,2013-05-18 05:18:00,
2013-05-18 01:24:00,64.2,63.3,30.09,ESE,119,0.0,0.0,97,0.00,,,0.02,HR-IXPWINDi_r2_v1.2.,2013-05-18 05:24:00,
2013-05-18 01:29:00,64.2,63.3,30.09,ESE,119,0.0,0.0,97,0.00,,,0.02,HR-IXPWINDi_r2_v1.2.,2013-05-18 05:29:00,
2013-05-18 01:34:00,64.2,63.3,30.09,ESE,119,0.0,0.0,97,0.00,,,0.02,HR-IXPWINDi_r2_v1.2.,2013-05-18 05:34:00,
2013-05-18 01:39:00,64.2,63.3,30.09,ESE,119,0.0,0.0,97,0.00,,,0.02,HR-IXPWINDi_r2_v1.2.,2013-05-18 05:39:00,
2013-05-18 01:45:00,64.1,63.2,30.10,ESE,119,0.0,0.0,97,0.00,,,0.02,HR-IXPWINDi_r2_v1.2.,2013-05-18 05:45:00,
2013-05-18 01:50:00,64.1,63.2,30.10,ESE,119,0.0,0.0,97,0.00,,,0.02,HR-IXPWINDi_r2_v1.2.,2013-05-18 05:50:00,
2013-05-18 01:55:00,64.1,63.2,30.09,ESE,119,0.0,0.0,97,0.00,,,0.02,HR-IXPWINDi_r2_v1.2.,2013-05-18 05:55:00,
2013-05-18 02:00:00,64.1,63.2,30.09,ESE,119,0.0,0.0,97,0.00,,,0.02,HR-IXPWINDi_r2_v1.2.,2013-05-18 06:00:00,
2013-05-18 02:05:00,64.0,63.1,30.09,ESE,119,0.0,0.0,97,0.00,,,0.02,HR-IXPWINDi_r2_v1.2.,2013-05-18 06:05:00,
2013-05-18 02:11:00,64.0,63.1,30.09,ESE,119,0.0,0.0,97,0.00,,,0.02,HR-IXPWINDi_r2_v1.2.,2013-05-18 06:11:00,
2013-05-18 02:16:00,63.9,63.0,30.09,ESE,119,0.0,0.0,97,0.00,,,0.02,HR-IXPWINDi_r2_v1.2.,2013-05-18 06:16:00,
2013-05-18 02:21:00,63.8,62.9,30.10,ESE,119,0.0,0.0,97,0.00,,,0.02,HR-IXPWINDi_r2_v1.2.,2013-05-18 06:21:00,
2013-05-18 02:26:00,63.7,62.8,30.10,ESE,119,0.0,0.0,97,0.00,,,0.02,HR-IXPWINDi_r2_v1.2.,2013-05-18 06:26:00,
2013-05-18 02:31:00,63.6,62.7,30.10,ESE,119,0.0,0.0,97,0.00,,,0.02,HR-IXPWINDi_r2_v1.2.,2013-05-18 06:31:00,
2013-05-18 02:37:00,63.6,62.7,30.10,ESE,119,0.0,0.0,97,0.00,,,0.02,HR-IXPWINDi_r2_v1.2.,2013-05-18 06:37:00,
2013-05-18 02:42:00,63.6,62.7,30.10,ESE,119,0.0,0.0,97,0.00,,,0.02,HR-IXPWINDi_r2_v1.2.,2013-05-18 06:42:00,
2013-05-18 02:47:00,63.6,62.7,30.10,ESE,119,0.0,0.0,97,0.00,,,0.02,HR-IXPWINDi_r2_v1.2.,2013-05-18 06:47:00,
2013-05-18 02:52:00,63.6,62.7,30.10,ESE,119,0.0,0.0,97,0.00,,,0.02,HR-IXPWINDi_r2_v1.2.,2013-05-18 06:52:00,
2013-05-18 02:57:00,63.6,63.0,30.10,ESE,119,0.0,0.0,98,0.00,,,0.02,HR-IXPWINDi_r2_v1.2.,2013-05-18 06:57:00,
2013-05-18 03:02:00,63.6,63.0,30.09,ESE,119,0.0,0.0,98,0.00,,,0.02,HR-IXPWINDi_r2_v1.2.,2013-05-18 07:02:00,
2013-05-18 03:07:00,63.7,63.1,30.09,ESE,119,0.0,0.0,98,0.00,,,0.02,HR-IXPWINDi_r2_v1.2.,2013-05-18 07:07:00,
2013-05-18 03:13:00,63.7,63.1,30.10,ESE,119,0.0,0.0,98,0.00,,,0.02,HR-IXPWINDi_r2_v1.2.,2013-05-18 07:13:00,
2013-05-18 03:18:00,63.6,63.0,30.10,ESE,119,0.0,0.0,98,0.00,,,0.02,HR-IXPWINDi_r2_v1.2.,2013-05-18 07:18:00,
2013-05-18 03:23:00,63.6,63.0,30.10,ESE,119,0.0,0.0,98,0.00,,,0.02,HR-IXPWINDi_r2_v1.2.,2013-05-18 07:23:00,
2013-05-18 03:28:00,63.7,63.1,30.10,ESE,119,0.0,0.0,98,0.00,,,0.02,HR-IXPWINDi_r2_v1.2.,2013-05-18 07:28:00,
2013-05-18 03:33:00,63.9,63.3,30.10,ESE,119,0.0,1.0,98,0.00,,,0.02,HR-IXPWINDi_r2_v1.2.,2013-05-18 07:33:00,
2013-05-18 03:39:00,63.9,63.3,30.10,ESE,119,0.0,1.0,98,0.00,,,0.02,HR-IXPWINDi_r2_v1.2.,2013-05-18 07:39:00,
2013-05-18 03:44:00,63.9,63.3,30.10,ESE,119,0.0,1.0,98,0.00,,,0.02,HR-IXPWINDi_r2_v1.2.,2013-05-18 07:44:00,
2013-05-18 03:49:00,63.9,63.3,30.10,ESE,119,0.0,0.0,98,0.00,,,0.02,HR-IXPWINDi_r2_v1.2.,2013-05-18 07:49:00,
2013-05-18 03:54:00,63.8,63.2,30.10,ESE,119,0.0,0.0,98,0.00,,,0.02,HR-IXPWINDi_r2_v1.2.,2013-05-18 07:54:00,
2013-05-18 03:59:00,63.8,63.2,30.10,ESE,119,0.0,0.0,98,0.00,,,0.02,HR-IXPWINDi_r2_v1.2.,2013-05-18 07:59:00,
2013-05-18 04:04:00,63.8,63.2,30.10,ESE,119,0.0,0.0,98,0.00,,,0.02,HR-IXPWINDi_r2_v1.2.,2013-05-18 08:04:00,
2013-05-18 04:10:00,63.7,63.1,30.10,ESE,119,0.0,0.0,98,0.00,,,0.02,HR-IXPWINDi_r2_v1.2.,2013-05-18 08:10:00,
2013-05-18 04:15:00,63.6,63.0,30.10,ESE,119,0.0,0.0,98,0.00,,,0.02,HR-IXPWINDi_r2_v1.2.,2013-05-18 08:15:00,
2013-05-18 04:20:00,63.6,63.0,30.10,ESE,119,0.0,0.0,98,0.00,,,0.02,HR-IXPWINDi_r2_v1.2.,2013-05-18 08:20:00,
2013-05-18 04:25:00,63.6,63.0,30.10,ESE,119,0.0,0.0,98,0.00,,,0.02,HR-IXPWINDi_r2_v1.2.,2013-05-18 08:25:00,
2013-05-18 04:31:00,63.6,63.0,30.10,ESE,119,0.0,0.0,98,0.00,,,0.02,HR-IXPWINDi_r2_v1.2.,2013-05-18 08:31:00,
2013-05-18 04:36:00,63.6,63.0,30.10,ESE,119,0.0,0.0,98,0.00,,,0.02,HR-IXPWINDi_r2_v1.2.,2013-05-18 08:36:00,
2013-05-18 04:41:00,63.6,63.0,30.10,ESE,119,0.0,0.0,98,0.00,,,0.02,HR-IXPWINDi_r2_v1.2.,2013-05-18 08:41:00,
2013-05-18 04:46:00,63.6,63.0,30.10,ESE,119,0.0,0.0,98,0.00,,,0.02,HR-IXPWINDi_r2_v1.2.,2013-05-18 08:46:00,
2013-05-18 04:52:00,63.6,63.0,30.10,ESE,119,0.0,0.0,98,0.00,,,0.02,HR-IXPWINDi_r2_v1.2.,2013-05-18 08:52:00,
2013-05-18 04:57:00,63.5,62.9,30.10,ESE,119,0.0,0.0,98,0.00,,,0.02,HR-IXPWINDi_r2_v1.2.,2013-05-18 08:57:00,
2013-05-18 05:02:00,63.4,62.8,30.10,ESE,119,0.0,0.0,98,0.00,,,0.02,HR-IXPWINDi_r2_v1.2.,2013-05-18 09:02:00,
2013-05-18 05:07:00,63.3,62.7,30.10,ESE,119,0.0,0.0,98,0.00,,,0.02,HR-IXPWINDi_r2_v1.2.,2013-05-18 09:07:00,
2013-05-18 05:13:00,63.2,62.6,30.10,ESE,119,0.0,0.0,98,0.00,,,0.02,HR-IXPWINDi_r2_v1.2.,2013-05-18 09:13:00,
2013-05-18 05:18:00,63.1,62.5,30.11,ESE,119,0.0,0.0,98,0.00,,,0.02,HR-IXPWINDi_r2_v1.2.,2013-05-18 09:18:00,
2013-05-18 05:23:00,63.0,62.4,30.10,ESE,119,0.0,0.0,98,0.00,,,0.02,HR-IXPWINDi_r2_v1.2.,2013-05-18 09:23:00,
2013-05-18 05:28:00,62.9,62.3,30.11,ESE,119,0.0,0.0,98,0.00,,,0.02,HR-IXPWINDi_r2_v1.2.,2013-05-18 09:28:00,
2013-05-18 05:33:00,62.9,62.3,30.11,ESE,119,0.0,0.0,98,0.00,,,0.02,HR-IXPWINDi_r2_v1.2.,2013-05-18 09:33:00,
2013-05-18 05:38:00,62.8,62.2,30.11,ESE,119,0.0,0.0,98,0.00,,,0.02,HR-IXPWINDi_r2_v1.2.,2013-05-18 09:38:00,
2013-05-18 05:44:00,62.8,62.2,30.11,ESE,119,0.0,0.0,98,0.00,,,0.02,HR-IXPWINDi_r2_v1.2.,2013-05-18 09:44:00,
2013-05-18 05:49:00,62.8,62.2,30.11,ESE,119,0.0,0.0,98,0.00,,,0.02,HR-IXPWINDi_r2_v1.2.,2013-05-18 09:49:00,
2013-05-18 05:54:00,62.8,62.2,30.11,ESE,119,0.0,0.0,98,0.00,,,0.02,HR-IXPWINDi_r2_v1.2.,2013-05-18 09:54:00,
2013-05-18 05:59:00,62.8,62.2,30.11,ESE,119,0.0,0.0,98,0.00,,,0.02,HR-IXPWINDi_r2_v1.2.,2013-05-18 09:59:00,
2013-05-18 06:04:00,62.8,62.2,30.12,ESE,119,0.0,0.0,98,0.00,,,0.02,HR-IXPWINDi_r2_v1.2.,2013-05-18 10:04:00,
2013-05-18 06:09:00,62.8,62.2,30.12,ESE,119,0.0,0.0,98,0.00,,,0.02,HR-IXPWINDi_r2_v1.2.,2013-05-18 10:09:00,
2013-05-18 06:14:00,62.9,62.3,30.12,ESE,119,0.0,0.0,98,0.00,,,0.02,HR-IXPWINDi_r2_v1.2.,2013-05-18 10:14:00,
2013-05-18 06:20:00,62.9,62.3,30.12,ESE,119,0.0,0.0,98,0.00,,,0.02,HR-IXPWINDi_r2_v1.2.,2013-05-18 10:20:00,
2013-05-18 06:25:00,62.9,62.3,30.12,ESE,119,0.0,0.0,98,0.00,,,0.02,HR-IXPWINDi_r2_v1.2.,2013-05-18 10:25:00,
2013-05-18 06:30:00,63.0,62.4,30.12,ESE,119,0.0,0.0,98,0.00,,,0.02,HR-IXPWINDi_r2_v1.2.,2013-05-18 10:30:00,
2013-05-18 06:35:00,63.0,62.4,30.12,ESE,119,0.0,0.0,98,0.00,,,0.02,HR-IXPWINDi_r2_v1.2.,2013-05-18 10:35:00,
2013-05-18 06:40:00,63.1,62.5,30.13,ESE,119,0.0,0.0,98,0.00,,,0.02,HR-IXPWINDi_r2_v1.2.,2013-05-18 10:40:00,
2013-05-18 06:45:00,63.1,62.7,30.13,ESE,119,0.0,0.0,99,0.00,,,0.02,HR-IXPWINDi_r2_v1.2.,2013-05-18 10:45:00,
2013-05-18 06:51:00,63.2,62.6,30.13,ESE,119,0.0,1.0,98,0.00,,,0.02,HR-IXPWINDi_r2_v1.2.,2013-05-18 10:51:00,
2013-05-18 06:56:00,63.2,62.6,30.13,ESE,119,0.0,1.0,98,0.00,,,0.02,HR-IXPWINDi_r2_v1.2.,2013-05-18 10:56:00,
2013-05-18 07:01:00,63.2,62.6,30.13,ESE,119,0.0,2.0,98,0.00,,,0.02,HR-IXPWINDi_r2_v1.2.,2013-05-18 11:01:00,
2013-05-18 07:06:00,63.2,62.6,30.14,ESE,119,0.0,2.0,98,0.00,,,0.02,HR-IXPWINDi_r2_v1.2.,2013-05-18 11:06:00,
2013-05-18 07:12:00,63.2,62.6,30.14,ESE,119,0.0,0.0,98,0.00,,,0.02,HR-IXPWINDi_r2_v1.2.,2013-05-18 11:12:00,
2013-05-18 07:17:00,63.2,62.6,30.14,ESE,119,0.0,0.0,98,0.00,,,0.02,HR-IXPWINDi_r2_v1.2.,2013-05-18 11:17:00,
2013-05-18 07:22:00,63.2,62.6,30.14,ESE,119,0.0,0.0,98,0.00,,,0.02,HR-IXPWINDi_r2_v1.2.,2013-05-18 11:22:00,
2013-05-18 07:27:00,63.3,62.7,30.14,ESE,119,0.0,0.0,98,0.00,,,0.02,HR-IXPWINDi_r2_v1.2.,2013-05-18 11:27:00,
2013-05-18 07:32:00,63.2,62.6,30.14,ESE,119,0.0,0.0,98,0.00,,,0.02,HR-IXPWINDi_r2_v1.2.,2013-05-18 11:32:00,
2013-05-18 07:38:00,63.2,62.6,30.14,ESE,119,0.0,0.0,98,0.00,,,0.02,HR-IXPWINDi_r2_v1.2.,2013-05-18 11:38:00,
2013-05-18 07:43:00,63.2,62.6,30.15,ESE,119,0.0,0.0,98,0.00,,,0.02,HR-IXPWINDi_r2_v1.2.,2013-05-18 11:43:00,
2013-05-18 07:48:00,63.2,62.6,30.15,ESE,119,0.0,1.0,98,0.00,,,0.02,HR-IXPWINDi_r2_v1.2.,2013-05-18 11:48:00,
2013-05-18 07:53:00,63.2,62.6,30.15,ESE,119,0.0,1.0,98,0.00,,,0.02,HR-IXPWINDi_r2_v1.2.,2013-05-18 11:53:00,
2013-05-18 07:58:00,63.1,62.5,30.15,ESE,119,0.0,1.0,98,0.00,,,0.02,HR-IXPWINDi_r2_v1.2.,2013-05-18 11:58:00,
2013-05-18 08:03:00,63.1,62.5,30.15,ESE,119,0.0,0.0,98,0.00,,,0.02,HR-IXPWINDi_r2_v1.2.,2013-05-18 12:03:00,
2013-05-18 08:08:00,63.1,62.5,30.15,ESE,119,0.0,0.0,98,0.00,,,0.02,HR-IXPWINDi_r2_v1.2.,2013-05-18 12:08:00,
2013-05-18 08:14:00,63.1,62.5,30.15,ESE,119,0.0,0.0,98,0.00,,,0.02,HR-IXPWINDi_r2_v1.2.,2013-05-18 12:14:00,
2013-05-18 08:19:00,63.0,62.4,30.16,ESE,119,0.0,1.0,98,0.00,,,0.02,HR-IXPWINDi_r2_v1.2.,2013-05-18 12:19:00,
2013-05-18 08:24:00,63.0,62.4,30.16,ESE,119,0.0,1.0,98,0.00,,,0.02,HR-IXPWINDi_r2_v1.2.,2013-05-18 12:24:00,
2013-05-18 08:29:00,62.9,62.3,30.16,ESE,119,0.0,0.0,98,0.00,,,0.02,HR-IXPWINDi_r2_v1.2.,2013-05-18 12:29:00,
2013-05-18 08:34:00,62.9,62.3,30.16,ESE,119,0.0,0.0,98,0.00,,,0.02,HR-IXPWINDi_r2_v1.2.,2013-05-18 12:34:00,
2013-05-18 08:40:00,62.9,62.5,30.16,ESE,119,0.0,0.0,99,0.00,,,0.02,HR-IXPWINDi_r2_v1.2.,2013-05-18 12:40:00,
2013-05-18 08:45:00,62.9,62.5,30.16,ESE,119,0.0,0.0,99,0.00,,,0.02,HR-IXPWINDi_r2_v1.2.,2013-05-18 12:45:00,
2013-05-18 08:50:00,63.0,62.6,30.16,ESE,119,0.0,0.0,99,0.00,,,0.02,HR-IXPWINDi_r2_v1.2.,2013-05-18 12:50:00,
2013-05-18 08:56:00,63.0,62.6,30.16,ESE,119,0.0,0.0,99,0.00,,,0.02,HR-IXPWINDi_r2_v1.2.,2013-05-18 12:56:00,
2013-05-18 09:01:00,63.0,62.6,30.17,ESE,119,0.0,0.0,99,0.00,,,0.02,HR-IXPWINDi_r2_v1.2.,2013-05-18 13:01:00,
2013-05-18 09:06:00,63.1,62.7,30.17,ESE,119,0.0,0.0,99,0.00,,,0.02,HR-IXPWINDi_r2_v1.2.,2013-05-18 13:06:00,
2013-05-18 09:11:00,63.2,62.8,30.17,ESE,119,0.0,0.0,99,0.00,,,0.02,HR-IXPWINDi_r2_v1.2.,2013-05-18 13:11:00,
2013-05-18 09:16:00,63.2,62.8,30.17,ESE,119,0.0,0.0,99,0.00,,,0.02,HR-IXPWINDi_r2_v1.2.,2013-05-18 13:16:00,
2013-05-18 09:21:00,63.2,62.8,30.17,ESE,119,0.0,0.0,99,0.00,,,0.02,HR-IXPWINDi_r2_v1.2.,2013-05-18 13:21:00,
2013-05-18 09:27:00,63.2,62.8,30.17,ESE,119,0.0,0.0,99,0.00,,,0.02,HR-IXPWINDi_r2_v1.2.,2013-05-18 13:27:00,
2013-05-18 09:32:00,63.2,62.6,30.17,ESE,119,0.0,0.0,98,0.00,,,0.02,HR-IXPWINDi_r2_v1.2.,2013-05-18 13:32:00,
2013-05-18 09:37:00,63.1,62.7,30.17,ESE,119,0.0,0.0,99,0.00,,,0.02,HR-IXPWINDi_r2_v1.2.,2013-05-18 13:37:00,
2013-05-18 09:42:00,63.1,62.5,30.17,ESE,119,0.0,0.0,98,0.00,,,0.02,HR-IXPWINDi_r2_v1.2.,2013-05-18 13:42:00,
2013-05-18 09:48:00,63.2,62.6,30.17,ESE,119,0.0,0.0,98,0.00,,,0.02,HR-IXPWINDi_r2_v1.2.,2013-05-18 13:48:00,
2013-05-18 09:53:00,63.2,62.6,30.17,ESE,119,0.0,0.0,98,0.00,,,0.02,HR-IXPWINDi_r2_v1.2.,2013-05-18 13:53:00,
2013-05-18 09:58:00,63.4,63.0,30.17,ESE,119,0.0,0.0,99,0.00,,,0.02,HR-IXPWINDi_r2_v1.2.,2013-05-18 13:58:00,
2013-05-18 10:03:00,63.5,63.1,30.17,ESE,119,0.0,0.0,99,0.00,,,0.02,HR-IXPWINDi_r2_v1.2.,2013-05-18 14:03:00,
2013-05-18 10:08:00,63.6,63.2,30.17,ESE,119,0.0,0.0,99,0.00,,,0.02,HR-IXPWINDi_r2_v1.2.,2013-05-18 14:08:00,
2013-05-18 10:13:00,63.8,63.4,30.17,ESE,119,0.0,1.0,99,0.00,,,0.02,HR-IXPWINDi_r2_v1.2.,2013-05-18 14:13:00,
2013-05-18 10:19:00,63.8,63.2,30.17,ESE,119,0.0,1.0,98,0.00,,,0.02,HR-IXPWINDi_r2_v1.2.,2013-05-18 14:19:00,
2013-05-18 10:24:00,63.8,63.2,30.17,ESE,119,0.0,1.0,98,0.00,,,0.02,HR-IXPWINDi_r2_v1.2.,2013-05-18 14:24:00,
2013-05-18 10:29:00,63.7,63.1,30.17,ESE,119,0.0,1.0,98,0.00,,,0.02,HR-IXPWINDi_r2_v1.2.,2013-05-18 14:29:00,
2013-05-18 10:35:00,63.9,63.3,30.17,ESE,119,0.0,0.0,98,0.00,,,0.02,HR-IXPWINDi_r2_v1.2.,2013-05-18 14:35:00,
2013-05-18 10:40:00,64.1,63.7,30.17,WSW,254,0.0,2.0,99,0.00,,,0.02,HR-IXPWINDi_r2_v1.2.,2013-05-18 14:40:00,
2013-05-18 10:45:00,64.1,63.5,30.17,WSW,254,0.0,2.0,98,0.00,,,0.02,HR-IXPWINDi_r2_v1.2.,2013-05-18 14:45:00,
2013-05-18 10:50:00,64.2,63.6,30.17,WSW,254,0.0,0.0,98,0.00,,,0.02,HR-IXPWINDi_r2_v1.2.,2013-05-18 14:50:00,
2013-05-18 10:55:00,64.1,63.5,30.16,WSW,254,0.0,0.0,98,0.00,,,0.02,HR-IXPWINDi_r2_v1.2.,2013-05-18 14:55:00,
2013-05-18 11:00:00,64.1,63.2,30.17,WSW,254,0.0,1.0,97,0.00,,,0.02,HR-IXPWINDi_r2_v1.2.,2013-05-18 15:00:00,
2013-05-18 11:06:00,64.1,63.2,30.17,WSW,254,0.0,1.0,97,0.00,,,0.02,HR-IXPWINDi_r2_v1.2.,2013-05-18 15:06:00,
2013-05-18 11:11:00,64.1,63.2,30.17,WSW,254,0.0,0.0,97,0.00,,,0.02,HR-IXPWINDi_r2_v1.2.,2013-05-18 15:11:00,
2013-05-18 11:16:00,64.1,63.2,30.17,WSW,254,0.0,0.0,97,0.00,,,0.02,HR-IXPWINDi_r2_v1.2.,2013-05-18 15:16:00,
2013-05-18 11:21:00,64.1,63.2,30.17,WSW,254,0.0,0.0,97,0.00,,,0.02,HR-IXPWINDi_r2_v1.2.,2013-05-18 15:21:00,
2013-05-18 11:26:00,64.1,62.9,30.17,WSW,254,0.0,0.0,96,0.00,,,0.02,HR-IXPWINDi_r2_v1.2.,2013-05-18 15:26:00,
2013-05-18 11:31:00,64.2,63.0,30.17,WSW,254,0.0,0.0,96,0.00,,,0.02,HR-IXPWINDi_r2_v1.2.,2013-05-18 15:31:00,
2013-05-18 11:37:00,64.3,63.1,30.16,WSW,254,0.0,0.0,96,0.00,,,0.02,HR-IXPWINDi_r2_v1.2.,2013-05-18 15:37:00,
2013-05-18 11:42:00,64.4,63.2,30.16,WSW,254,0.0,0.0,96,0.00,,,0.02,HR-IXPWINDi_r2_v1.2.,2013-05-18 15:42:00,
2013-05-18 11:47:00,64.7,63.8,30.16,WSW,254,0.0,0.0,97,0.00,,,0.02,HR-IXPWINDi_r2_v1.2.,2013-05-18 15:47:00,
2013-05-18 11:52:00,65.0,64.1,30.16,WSW,254,0.0,0.0,97,0.00,,,0.02,HR-IXPWINDi_r2_v1.2.,2013-05-18 15:52:00,
2013-05-18 11:58:00,65.3,64.4,30.16,SSW,209,0.0,1.0,97,0.00,,,0.02,HR-IXPWINDi_r2_v1.2.,2013-05-18 15:58:00,
2013-05-18 12:03:00,65.5,64.0,30.16,SSW,209,0.0,1.0,95,0.00,,,0.02,HR-IXPWINDi_r2_v1.2.,2013-05-18 16:03:00,
2013-05-18 12:08:00,65.5,63.7,30.16,SSW,209,0.0,1.0,94,0.00,,,0.02,HR-IXPWINDi_r2_v1.2.,2013-05-18 16:08:00,
2013-05-18 12:13:00,65.7,63.9,30.16,SSW,200,1.0,1.0,94,0.00,,,0.02,HR-IXPWINDi_r2_v1.2.,2013-05-18 16:13:00,
2013-05-18 12:18:00,65.9,64.1,30.15,SSW,200,0.0,1.0,94,0.00,,,0.02,HR-IXPWINDi_r2_v1.2.,2013-05-18 16:18:00,
2013-05-18 12:23:00,66.0,63.9,30.15,ESE,121,0.0,2.0,93,0.00,,,0.02,HR-IXPWINDi_r2_v1.2.,2013-05-18 16:23:00,
2013-05-18 12:28:00,66.2,64.0,30.15,ESE,121,0.0,2.0,93,0.00,,,0.02,HR-IXPWINDi_r2_v1.2.,2013-05-18 16:28:00,
2013-05-18 12:33:00,66.5,64.3,30.15,ESE,121,0.0,1.0,93,0.00,,,0.02,HR-IXPWINDi_r2_v1.2.,2013-05-18 16:33:00,
2013-05-18 12:38:00,66.6,64.4,30.15,ESE,121,0.0,1.0,93,0.00,,,0.02,HR-IXPWINDi_r2_v1.2.,2013-05-18 16:38:00,
2013-05-18 12:44:00,66.9,65.0,30.15,ESE,121,0.0,0.0,94,0.00,,,0.02,HR-IXPWINDi_r2_v1.2.,2013-05-18 16:44:00,
2013-05-18 12:49:00,66.8,64.6,30.15,ESE,121,0.0,1.0,93,0.00,,,0.02,HR-IXPWINDi_r2_v1.2.,2013-05-18 16:49:00,
2013-05-18 12:54:00,66.8,64.3,30.15,ESE,121,0.0,1.0,92,0.00,,,0.02,HR-IXPWINDi_r2_v1.2.,2013-05-18 16:54:00,
2013-05-18 12:59:00,66.7,64.2,30.15,ESE,121,0.0,1.0,92,0.00,,,0.02,HR-IXPWINDi_r2_v1.2.,2013-05-18 16:59:00,
2013-05-18 13:04:00,66.8,64.0,30.15,ESE,121,0.0,1.0,91,0.00,,,0.02,HR-IXPWINDi_r2_v1.2.,2013-05-18 17:04:00,
2013-05-18 13:09:00,66.9,64.1,30.15,ESE,121,0.0,1.0,91,0.00,,,0.02,HR-IXPWINDi_r2_v1.2.,2013-05-18 17:09:00,
2013-05-18 13:14:00,66.9,64.4,30.15,ESE,121,0.0,0.0,92,0.00,,,0.02,HR-IXPWINDi_r2_v1.2.,2013-05-18 17:14:00,
2013-05-18 13:19:00,66.9,64.4,30.15,ESE,121,0.0,1.0,92,0.00,,,0.02,HR-IXPWINDi_r2_v1.2.,2013-05-18 17:19:00,
2013-05-18 13:24:00,67.0,64.5,30.15,ESE,121,0.0,1.0,92,0.00,,,0.02,HR-IXPWINDi_r2_v1.2.,2013-05-18 17:24:00,
2013-05-18 13:29:00,67.0,64.2,30.15,ESE,121,0.0,1.0,91,0.00,,,0.02,HR-IXPWINDi_r2_v1.2.,2013-05-18 17:29:00,
2013-05-18 13:35:00,67.0,64.2,30.15,ESE,121,0.0,1.0,91,0.00,,,0.02,HR-IXPWINDi_r2_v1.2.,2013-05-18 17:35:00,
2013-05-18 13:40:00,67.0,64.2,30.15,ESE,121,0.0,0.0,91,0.00,,,0.02,HR-IXPWINDi_r2_v1.2.,2013-05-18 17:40:00,
2013-05-18 13:45:00,66.8,64.0,30.15,ESE,121,0.0,0.0,91,0.00,,,0.02,HR-IXPWINDi_r2_v1.2.,2013-05-18 17:45:00,
2013-05-18 13:50:00,66.6,63.5,30.15,ESE,121,0.0,1.0,90,0.00,,,0.02,HR-IXPWINDi_r2_v1.2.,2013-05-18 17:50:00,
2013-05-18 13:55:00,66.5,63.4,30.15,ESE,119,0.0,2.0,90,0.00,,,0.02,HR-IXPWINDi_r2_v1.2.,2013-05-18 17:55:00,
2013-05-18 14:00:00,66.4,63.6,30.15,ESE,119,0.0,2.0,91,0.00,,,0.02,HR-IXPWINDi_r2_v1.2.,2013-05-18 18:00:00,
2013-05-18 14:06:00,66.3,63.5,30.15,ESE,119,0.0,1.0,91,0.00,,,0.02,HR-IXPWINDi_r2_v1.2.,2013-05-18 18:06:00,
2013-05-18 14:11:00,66.1,63.3,30.15,ESE,119,0.0,1.0,91,0.00,,,0.02,HR-IXPWINDi_r2_v1.2.,2013-05-18 18:11:00,
2013-05-18 14:16:00,66.0,63.5,30.15,ESE,119,0.0,1.0,92,0.00,,,0.02,HR-IXPWINDi_r2_v1.2.,2013-05-18 18:16:00,
2013-05-18 14:21:00,65.9,63.4,30.15,ESE,119,0.0,1.0,92,0.00,,,0.02,HR-IXPWINDi_r2_v1.2.,2013-05-18 18:21:00,
2013-05-18 14:26:00,65.8,63.7,30.14,ESE,119,0.0,1.0,93,0.00,,,0.02,HR-IXPWINDi_r2_v1.2.,2013-05-18 18:26:00,
2013-05-18 14:32:00,65.7,63.6,30.14,East,101,0.0,3.0,93,0.00,,,0.02,HR-IXPWINDi_r2_v1.2.,2013-05-18 18:32:00,
2013-05-18 14:37:00,65.6,63.5,30.14,East,101,0.0,3.0,93,0.00,,,0.03,HR-IXPWINDi_r2_v1.2.,2013-05-18 18:37:00,
2013-05-18 14:42:00,65.6,63.8,30.14,East,101,0.0,1.0,94,0.00,,,0.03,HR-IXPWINDi_r2_v1.2.,2013-05-18 18:42:00,
2013-05-18 14:47:00,65.4,63.3,30.14,ESE,112,0.0,3.0,93,0.00,,,0.03,HR-IXPWINDi_r2_v1.2.,2013-05-18 18:47:00,
2013-05-18 14:52:00,65.4,63.6,30.14,ESE,112,0.0,3.0,94,0.00,,,0.03,HR-IXPWINDi_r2_v1.2.,2013-05-18 18:52:00,
2013-05-18 14:58:00,65.4,63.9,30.14,ESE,112,0.0,1.0,95,0.00,,,0.03,HR-IXPWINDi_r2_v1.2.,2013-05-18 18:58:00,
2013-05-18 15:03:00,65.5,64.0,30.14,ESE,113,1.0,2.0,95,0.00,,,0.03,HR-IXPWINDi_r2_v1.2.,2013-05-18 19:03:00,
2013-05-18 15:08:00,65.5,64.0,30.14,ESE,113,0.0,2.0,95,0.00,,,0.03,HR-IXPWINDi_r2_v1.2.,2013-05-18 19:08:00,
2013-05-18 15:13:00,65.5,64.0,30.14,ESE,113,0.0,1.0,95,0.00,,,0.04,HR-IXPWINDi_r2_v1.2.,2013-05-18 19:13:00,
2013-05-18 15:18:00,65.5,64.0,30.14,ESE,113,0.0,1.0,95,0.12,,,0.05,HR-IXPWINDi_r2_v1.2.,2013-05-18 19:18:00,
2013-05-18 15:23:00,65.5,64.0,30.13,ESE,113,0.0,0.0,95,0.08,,,0.05,HR-IXPWINDi_r2_v1.2.,2013-05-18 19:23:00,
2013-05-18 15:29:00,65.5,64.3,30.13,ESE,113,0.0,0.0,96,0.05,,,0.05,HR-IXPWINDi_r2_v1.2.,2013-05-18 19:29:00,
2013-05-18 15:34:00,65.4,64.2,30.13,ESE,113,0.0,0.0,96,0.00,,,0.05,HR-IXPWINDi_r2_v1.2.,2013-05-18 19:34:00,
2013-05-18 15:39:00,65.4,64.2,30.12,ESE,113,0.0,0.0,96,0.00,,,0.05,HR-IXPWINDi_r2_v1.2.,2013-05-18 19:39:00,
2013-05-18 15:44:00,65.4,64.2,30.12,ESE,113,0.0,0.0,96,0.00,,,0.05,HR-IXPWINDi_r2_v1.2.,2013-05-18 19:44:00,
2013-05-18 15:49:00,65.4,64.2,30.12,ESE,113,0.0,1.0,96,0.00,,,0.05,HR-IXPWINDi_r2_v1.2.,2013-05-18 19:49:00,
2013-05-18 15:55:00,65.6,64.7,30.12,ESE,113,0.0,1.0,97,0.00,,,0.05,HR-IXPWINDi_r2_v1.2.,2013-05-18 19:55:00,
2013-05-18 16:00:00,65.6,64.7,30.12,ESE,113,0.0,0.0,97,0.00,,,0.05,HR-IXPWINDi_r2_v1.2.,2013-05-18 20:00:00,
2013-05-18 16:05:00,65.6,64.4,30.12,ESE,113,0.0,0.0,96,0.00,,,0.05,HR-IXPWINDi_r2_v1.2.,2013-05-18 20:05:00,
2013-05-18 16:10:00,65.7,64.8,30.11,ESE,113,0.0,2.0,97,0.00,,,0.05,HR-IXPWINDi_r2_v1.2.,2013-05-18 20:10:00,
2013-05-18 16:15:00,65.9,65.0,30.11,ESE,113,0.0,2.0,97,0.00,,,0.05,HR-IXPWINDi_r2_v1.2.,2013-05-18 20:15:00,
2013-05-18 16:20:00,66.1,65.2,30.11,ESE,113,0.0,0.0,97,0.00,,,0.05,HR-IXPWINDi_r2_v1.2.,2013-05-18 20:20:00,
2013-05-18 16:25:00,66.2,65.3,30.11,ESE,113,0.0,0.0,97,0.00,,,0.05,HR-IXPWINDi_r2_v1.2.,2013-05-18 20:25:00,
2013-05-18 16:30:00,66.2,65.0,30.11,ESE,113,0.0,1.0,96,0.00,,,0.05,HR-IXPWINDi_r2_v1.2.,2013-05-18 20:30:00,
2013-05-18 16:35:00,66.3,65.1,30.11,ESE,113,0.0,1.0,96,0.00,,,0.05,HR-IXPWINDi_r2_v1.2.,2013-05-18 20:35:00,
2013-05-18 16:40:00,66.4,65.2,30.11,ESE,113,0.0,1.0,96,0.00,,,0.05,HR-IXPWINDi_r2_v1.2.,2013-05-18 20:40:00,
2013-05-18 16:45:00,66.6,65.4,30.11,ESE,113,0.0,1.0,96,0.00,,,0.05,HR-IXPWINDi_r2_v1.2.,2013-05-18 20:45:00,
2013-05-18 16:51:00,66.6,65.4,30.11,ESE,113,0.0,1.0,96,0.00,,,0.05,HR-IXPWINDi_r2_v1.2.,2013-05-18 20:51:00,
2013-05-18 16:56:00,66.5,65.0,30.11,ESE,107,0.0,1.0,95,0.00,,,0.05,HR-IXPWINDi_r2_v1.2.,2013-05-18 20:56:00,
2013-05-18 17:01:00,66.5,65.0,30.11,ESE,107,0.0,2.0,95,0.00,,,0.05,HR-IXPWINDi_r2_v1.2.,2013-05-18 21:01:00,
2013-05-18 17:06:00,66.5,65.3,30.11,SE,136,0.0,2.0,96,0.00,,,0.05,HR-IXPWINDi_r2_v1.2.,2013-05-18 21:06:00,
2013-05-18 17:11:00,66.4,64.9,30.11,SE,136,0.0,1.0,95,0.00,,,0.05,HR-IXPWINDi_r2_v1.2.,2013-05-18 21:11:00,
2013-05-18 17:16:00,66.3,64.8,30.11,SE,136,0.0,1.0,95,0.00,,,0.05,HR-IXPWINDi_r2_v1.2.,2013-05-18 21:16:00,
2013-05-18 17:21:00,66.1,64.6,30.11,SE,136,1.0,1.0,95,0.00,,,0.05,HR-IXPWINDi_r2_v1.2.,2013-05-18 21:21:00,
2013-05-18 17:26:00,66.1,64.6,30.11,SE,136,0.0,1.0,95,0.00,,,0.05,HR-IXPWINDi_r2_v1.2.,2013-05-18 21:26:00,
2013-05-18 17:31:00,66.1,64.6,30.11,SE,136,0.0,1.0,95,0.00,,,0.05,HR-IXPWINDi_r2_v1.2.,2013-05-18 21:31:00,
2013-05-18 17:37:00,66.1,64.6,30.11,SE,136,0.0,1.0,95,0.00,,,0.05,HR-IXPWINDi_r2_v1.2.,2013-05-18 21:37:00,
2013-05-18 17:42:00,66.1,64.6,30.10,SE,136,0.0,0.0,95,0.00,,,0.05,HR-IXPWINDi_r2_v1.2.,2013-05-18 21:42:00,
2013-05-18 17:47:00,66.1,64.6,30.10,SE,135,0.0,0.0,95,0.00,,,0.05,HR-IXPWINDi_r2_v1.2.,2013-05-18 21:47:00,
2013-05-18 17:52:00,66.1,64.9,30.11,SE,135,0.0,1.0,96,0.00,,,0.05,HR-IXPWINDi_r2_v1.2.,2013-05-18 21:52:00,
2013-05-18 17:58:00,66.1,64.9,30.11,SE,135,0.0,1.0,96,0.00,,,0.05,HR-IXPWINDi_r2_v1.2.,2013-05-18 21:58:00,
2013-05-18 18:03:00,65.9,64.4,30.11,SE,135,0.0,0.0,95,0.00,,,0.05,HR-IXPWINDi_r2_v1.2.,2013-05-18 22:03:00,
2013-05-18 18:08:00,65.9,64.4,30.11,SE,135,0.0,1.0,95,0.00,,,0.05,HR-IXPWINDi_r2_v1.2.,2013-05-18 22:08:00,
2013-05-18 18:13:00,65.8,64.6,30.11,SE,135,0.0,1.0,96,0.00,,,0.05,HR-IXPWINDi_r2_v1.2.,2013-05-18 22:13:00,
2013-05-18 18:18:00,65.6,64.4,30.11,SE,135,0.0,0.0,96,0.00,,,0.05,HR-IXPWINDi_r2_v1.2.,2013-05-18 22:18:00,
2013-05-18 18:24:00,65.5,64.0,30.11,SE,135,0.0,0.0,95,0.00,,,0.05,HR-IXPWINDi_r2_v1.2.,2013-05-18 22:24:00,
2013-05-18 18:29:00,65.4,64.2,30.11,SE,135,0.0,0.0,96,0.00,,,0.05,HR-IXPWINDi_r2_v1.2.,2013-05-18 22:29:00,
2013-05-18 18:34:00,65.4,64.2,30.11,SE,135,0.0,0.0,96,0.00,,,0.05,HR-IXPWINDi_r2_v1.2.,2013-05-18 22:34:00,
2013-05-18 18:39:00,65.3,64.1,30.11,SE,135,0.0,0.0,96,0.00,,,0.05,HR-IXPWINDi_r2_v1.2.,2013-05-18 22:39:00,
2013-05-18 18:44:00,65.3,64.1,30.12,SE,135,0.0,0.0,96,0.00,,,0.05,HR-IXPWINDi_r2_v1.2.,2013-05-18 22:44:00,
2013-05-18 18:50:00,65.2,64.0,30.12,SE,135,0.0,0.0,96,0.00,,,0.05,HR-IXPWINDi_r2_v1.2.,2013-05-18 22:50:00,
2013-05-18 18:55:00,65.2,64.0,30.12,SE,135,0.0,0.0,96,0.00,,,0.05,HR-IXPWINDi_r2_v1.2.,2013-05-18 22:55:00,
2013-05-18 19:00:00,65.1,63.9,30.12,SE,135,0.0,0.0,96,0.00,,,0.05,HR-IXPWINDi_r2_v1.2.,2013-05-18 23:00:00,
2013-05-18 19:05:00,65.0,63.8,30.12,SE,135,0.0,0.0,96,0.00,,,0.05,HR-IXPWINDi_r2_v1.2.,2013-05-18 23:05:00,
2013-05-18 19:10:00,65.0,63.8,30.12,SE,135,0.0,0.0,96,0.00,,,0.05,HR-IXPWINDi_r2_v1.2.,2013-05-18 23:10:00,
2013-05-18 19:15:00,64.9,63.7,30.12,SE,135,0.0,0.0,96,0.00,,,0.05,HR-IXPWINDi_r2_v1.2.,2013-05-18 23:15:00,
2013-05-18 19:20:00,64.9,63.7,30.12,SE,135,0.0,0.0,96,0.00,,,0.05,HR-IXPWINDi_r2_v1.2.,2013-05-18 23:20:00,
2013-05-18 19:26:00,64.9,63.7,30.12,SE,135,0.0,0.0,96,0.00,,,0.05,HR-IXPWINDi_r2_v1.2.,2013-05-18 23:26:00,
2013-05-18 19:31:00,64.9,64.0,30.13,SE,135,0.0,0.0,97,0.00,,,0.05,HR-IXPWINDi_r2_v1.2.,2013-05-18 23:31:00,
2013-05-18 19:36:00,64.8,63.9,30.13,SE,135,0.0,0.0,97,0.00,,,0.05,HR-IXPWINDi_r2_v1.2.,2013-05-18 23:36:00,
2013-05-18 19:41:00,64.8,63.9,30.13,SE,135,0.0,0.0,97,0.00,,,0.05,HR-IXPWINDi_r2_v1.2.,2013-05-18 23:41:00,
2013-05-18 19:46:00,64.7,63.8,30.13,SE,135,0.0,0.0,97,0.00,,,0.06,HR-IXPWINDi_r2_v1.2.,2013-05-18 23:46:00,
2013-05-18 19:52:00,64.6,63.7,30.13,SE,135,0.0,0.0,97,0.00,,,0.06,HR-IXPWINDi_r2_v1.2.,2013-05-18 23:52:00,
2013-05-18 19:57:00,64.6,63.7,30.13,SE,135,0.0,0.0,97,0.33,,,0.07,HR-IXPWINDi_r2_v1.2.,2013-05-18 23:57:00,
2013-05-18 20:02:00,64.5,63.6,30.13,SE,135,0.0,0.0,97,0.24,,,0.10,HR-IXPWINDi_r2_v1.2.,2013-05-19 00:02:00,
2013-05-18 20:07:00,64.5,63.6,30.13,SE,135,0.0,0.0,97,0.08,,,0.11,HR-IXPWINDi_r2_v1.2.,2013-05-19 00:07:00,
2013-05-18 20:12:00,64.5,63.6,30.13,SE,135,0.0,0.0,97,0.15,,,0.12,HR-IXPWINDi_r2_v1.2.,2013-05-19 00:12:00,
2013-05-18 20:17:00,64.4,63.5,30.13,SE,135,0.0,0.0,97,0.13,,,0.13,HR-IXPWINDi_r2_v1.2.,2013-05-19 00:17:00,
2013-05-18 20:23:00,64.4,63.5,30.13,SE,135,0.0,0.0,97,0.13,,,0.14,HR-IXPWINDi_r2_v1.2.,2013-05-19 00:23:00,
2013-05-18 20:28:00,64.4,63.5,30.13,SE,135,0.0,0.0,97,0.26,,,0.15,HR-IXPWINDi_r2_v1.2.,2013-05-19 00:28:00,
2013-05-18 20:33:00,64.3,63.4,30.13,SE,135,0.0,0.0,97,0.26,,,0.18,HR-IXPWINDi_r2_v1.2.,2013-05-19 00:33:00,
2013-05-18 20:38:00,64.3,63.4,30.13,SE,135,0.0,0.0,97,0.13,,,0.19,HR-IXPWINDi_r2_v1.2.,2013-05-19 00:38:00,
2013-05-18 20:43:00,64.3,63.7,30.13,SE,135,0.0,1.0,98,0.14,,,0.21,HR-IXPWINDi_r2_v1.2.,2013-05-19 00:43:00,
2013-05-18 20:48:00,64.2,63.6,30.13,SE,135,0.0,1.0,98,0.11,,,0.21,HR-IXPWINDi_r2_v1.2.,2013-05-19 00:48:00,
2013-05-18 20:53:00,64.2,63.6,30.13,SE,135,0.0,0.0,98,0.06,,,0.21,HR-IXPWINDi_r2_v1.2.,2013-05-19 00:53:00,
2013-05-18 20:59:00,64.2,63.6,30.13,SE,135,0.0,1.0,98,0.05,,,0.22,HR-IXPWINDi_r2_v1.2.,2013-05-19 00:59:00,
2013-05-18 21:04:00,64.2,63.6,30.13,SE,135,0.0,1.0,98,0.05,,,0.22,HR-IXPWINDi_r2_v1.2.,2013-05-19 01:04:00,
2013-05-18 21:09:00,64.2,63.6,30.13,SE,135,0.0,0.0,98,0.05,,,0.23,HR-IXPWINDi_r2_v1.2.,2013-05-19 01:09:00,
2013-05-18 21:14:00,64.2,63.6,30.13,SE,135,0.0,0.0,98,0.25,,,0.25,HR-IXPWINDi_r2_v1.2.,2013-05-19 01:14:00,
2013-05-18 21:19:00,64.2,63.6,30.13,SE,135,0.0,0.0,98,0.12,,,0.26,HR-IXPWINDi_r2_v1.2.,2013-05-19 01:19:00,
2013-05-18 21:24:00,64.1,63.5,30.13,SE,135,0.0,0.0,98,0.09,,,0.26,HR-IXPWINDi_r2_v1.2.,2013-05-19 01:24:00,
2013-05-18 21:29:00,64.1,63.5,30.13,SE,135,0.0,0.0,98,0.06,,,0.27,HR-IXPWINDi_r2_v1.2.,2013-05-19 01:29:00,
2013-05-18 21:34:00,64.1,63.5,30.13,SE,135,0.0,0.0,98,0.06,,,0.27,HR-IXPWINDi_r2_v1.2.,2013-05-19 01:34:00,
2013-05-18 21:39:00,64.1,63.5,30.13,SE,135,0.0,0.0,98,0.06,,,0.28,HR-IXPWINDi_r2_v1.2.,2013-05-19 01:39:00,
2013-05-18 21:44:00,64.1,63.5,30.13,SE,135,0.0,0.0,98,0.06,,,0.28,HR-IXPWINDi_r2_v1.2.,2013-05-19 01:44:00,
2013-05-18 21:49:00,64.1,63.5,30.13,SE,135,0.0,0.0,98,0.05,,,0.28,HR-IXPWINDi_r2_v1.2.,2013-05-19 01:49:00,
2013-05-18 21:55:00,64.0,63.4,30.13,SE,135,0.0,0.0,98,0.00,,,0.28,HR-IXPWINDi_r2_v1.2.,2013-05-19 01:55:00,
2013-05-18 22:00:00,64.0,63.4,30.13,SE,135,0.0,1.0,98,0.00,,,0.28,HR-IXPWINDi_r2_v1.2.,2013-05-19 02:00:00,
2013-05-18 22:05:00,64.0,63.4,30.14,SE,135,0.0,1.0,98,0.00,,,0.28,HR-IXPWINDi_r2_v1.2.,2013-05-19 02:05:00,
2013-05-18 22:10:00,63.9,63.3,30.14,SE,135,0.0,0.0,98,0.00,,,0.28,HR-IXPWINDi_r2_v1.2.,2013-05-19 02:10:00,
2013-05-18 22:15:00,63.9,63.3,30.14,SE,135,0.0,0.0,98,0.00,,,0.28,HR-IXPWINDi_r2_v1.2.,2013-05-19 02:15:00,
2013-05-18 22:20:00,63.9,63.3,30.14,SE,135,0.0,1.0,98,0.00,,,0.28,HR-IXPWINDi_r2_v1.2.,2013-05-19 02:20:00,
2013-05-18 22:25:00,63.8,63.2,30.14,SE,135,0.0,1.0,98,0.00,,,0.28,HR-IXPWINDi_r2_v1.2.,2013-05-19 02:25:00,
2013-05-18 22:31:00,63.8,63.2,30.14,SE,135,0.0,0.0,98,0.00,,,0.28,HR-IXPWINDi_r2_v1.2.,2013-05-19 02:31:00,
2013-05-18 22:36:00,63.8,63.2,30.14,SE,126,0.0,3.0,98,0.00,,,0.29,HR-IXPWINDi_r2_v1.2.,2013-05-19 02:36:00,
2013-05-18 22:41:00,63.7,63.1,30.14,SE,126,0.0,3.0,98,0.00,,,0.29,HR-IXPWINDi_r2_v1.2.,2013-05-19 02:41:00,
2013-05-18 22:46:00,63.7,63.1,30.14,SE,126,0.0,1.0,98,0.04,,,0.30,HR-IXPWINDi_r2_v1.2.,2013-05-19 02:46:00,
2013-05-18 22:51:00,63.7,63.1,30.14,SE,126,0.0,1.0,98,0.18,,,0.31,HR-IXPWINDi_r2_v1.2.,2013-05-19 02:51:00,
2013-05-18 22:56:00,63.6,63.0,30.14,SE,126,0.0,1.0,98,0.26,,,0.34,HR-IXPWINDi_r2_v1.2.,2013-05-19 02:56:00,
2013-05-18 23:01:00,63.6,63.0,30.14,ESE,117,0.0,3.0,98,0.27,,,0.37,HR-IXPWINDi_r2_v1.2.,2013-05-19 03:01:00,
2013-05-18 23:07:00,63.5,62.9,30.14,ESE,111,2.0,3.0,98,0.41,,,0.40,HR-IXPWINDi_r2_v1.2.,2013-05-19 03:07:00,
2013-05-18 23:12:00,63.5,62.9,30.14,SE,125,0.0,3.0,98,0.29,,,0.42,HR-IXPWINDi_r2_v1.2.,2013-05-19 03:12:00,
2013-05-18 23:17:00,63.4,62.8,30.14,SSE,150,2.0,3.0,98,0.53,,,0.47,HR-IXPWINDi_r2_v1.2.,2013-05-19 03:17:00,
2013-05-18 23:22:00,63.3,62.7,30.14,SSE,150,0.0,3.0,98,0.15,,,0.48,HR-IXPWINDi_r2_v1.2.,2013-05-19 03:22:00,
2013-05-18 23:28:00,63.3,62.7,30.14,SSE,150,0.0,2.0,98,0.69,,,0.51,HR-IXPWINDi_r2_v1.2.,2013-05-19 03:28:00,
2013-05-18 23:33:00,63.3,62.7,30.14,SSE,150,0.0,0.0,98,0.13,,,0.52,HR-IXPWINDi_r2_v1.2.,2013-05-19 03:33:00,
2013-05-18 23:38:00,63.3,62.7,30.14,SSE,150,0.0,0.0,98,0.07,,,0.53,HR-IXPWINDi_r2_v1.2.,2013-05-19 03:38:00,
2013-05-18 23:43:00,63.3,62.7,30.14,SSE,150,0.0,0.0,98,0.07,,,0.53,HR-IXPWINDi_r2_v1.2.,2013-05-19 03:43:00,
2013-05-18 23:48:00,63.2,62.6,30.14,SSE,150,0.0,0.0,98,0.05,,,0.53,HR-IXPWINDi_r2_v1.2.,2013-05-19 03:48:00,
2013-05-18 23:53:00,63.2,62.6,30.14,SSE,150,0.0,1.0,98,0.00,,,0.53,HR-IXPWINDi_r2_v1.2.,2013-05-19 03:53:00,
2013-05-18 23:58:00,63.2,62.6,30.14,SSE,150,0.0,1.0,98,0.00,,,0.54,HR-IXPWINDi_r2_v1.2.,2013-05-19 03:58:00,